Wetbulb
59.03 59.35 59.58 59.35 59.30 59.30 58.92 58.84 59.12 59.22 59.44 59.58 59.90 59.81 59.72 59.52 59.15 59.11 55.38 61.50 61.80 67.93 67.10 63.69 59.23 59.40 62.70 62.62 63.13 61.43 56.62 53.32 53.30 53.89 57.26 61.60 59.03 61.66 63.55 61.28 61.58 62.25 63.03 65.01 65.60
58.43 58.78 59.22 59.43 59.14 59.15 58.90 58.75 59.09 59.27 59.55 59.65 59.79 59.63 59.35 59.32 57.99 57.08 64.29 66.24 68.24 68.49 59.39 55.96 54.58 60.02 61.67 61.31 62.22 59.81 57.02 54.28 57.15 58.30 59.10 60.85 60.11 60.54 60.16 59.85 59.29 60.51 64.14 65.48 64.91
56.88 57.75 58.63 58.97 59.06 58.91 58.67 58.80 59.10 59.39 59.59 59.59 59.50 59.26 59.09 59.09 57.71 57.47 67.90 68.85 68.73 67.77 58.86 59.52 58.20 62.09 60.04 61.18 60.60 60.29 56.27 58.16 58.19 61.25 62.09 59.88 59.54 60.83 58.90 56.56 59.26 59.58 61.25 62.91 61.92
56.41 56.55 57.74 58.44 58.51 58.48 58.33 58.50 59.05 59.25 59.40 59.19 59.01 59.08 59.31 58.74 49.64 58.55 70.71 70.18 69.56 61.69 62.98 61.58 60.34 59.95 58.66 57.55 60.02 58.25 60.11 60.62 60.71 61.27 60.58 58.44 60.05 58.07 58.11 58.11 62.16 62.68 63.24 60.54 58.75
56.23 56.33 56.39 57.62 58.04 58.22 58.30 58.35 58.47 58.61 58.73 58.70 58.99 59.18 58.55 55.38 55.54 67.23 70.40 68.79 61.67 59.02 62.45 62.48 60.77 59.89 57.50 57.91 59.53 59.50 59.17 60.16 61.02 60.34 59.73 60.08 57.86 56.82 55.24 57.70 62.45 61.37 60.54 60.09 57.75
56.22 55.68 55.70 56.14 57.72 58.09 57.99 57.81 57.56 57.72 58.03 58.38 59.13 59.38 59.03 52.54 61.25 66.97 61.99 58.75 58.65 58.06 62.84 63.00 61.33 61.41 59.30 58.27 58.45 60.50 60.07 59.59 60.25 59.50 59.10 57.67 57.09 57.78 55.44 58.10 58.82 59.66 57.23 56.75 57.28
56.09 55.52 55.19 55.62 57.11 57.73 57.75 57.21 56.97 57.49 58.06 58.47 59.40 59.85 56.96 55.16 62.33 62.73 59.21 57.77 58.71 58.31 60.68 62.24 64.34 62.06 60.78 58.92 61.62 59.93 57.12 58.38 58.57 58.50 57.28 59.08 55.06 53.66 56.00 56.72 55.52 55.60 55.81 56.18 56.88
55.99 55.31 55.01 55.11 56.16 57.63 57.87 57.23 57.17 57.68 58.08 58.76 60.16 59.34 55.65 60.06 62.82 59.96 59.69 58.68 59.15 59.33 63.25 64.94 65.27 62.59 61.34 61.57 59.00 56.36 56.69 53.70 55.22 58.37 57.63 58.23 50.85 54.65 57.33 55.65 53.68 54.93 55.66 55.43 56.45
55.74 55.03 54.81 54.93 55.25 57.19 57.09 56.46 57.47 57.90 58.54 59.73 60.01 59.05 55.30 61.11 58.05 59.49 59.82 57.57 58.37 62.81 65.55 64.82 63.38 60.45 59.35 56.47 54.53 53.86 51.37 49.83 52.29 57.60 57.26 56.25 51.11 56.00 58.03 56.83 55.08 55.37 55.98 55.85 58.15
55.76 54.87 54.48 54.73 55.13 56.56 55.82 55.93 58.62 59.28 59.81 59.98 60.24 55.49 55.01 55.74 58.23 58.25 58.99 61.33 62.28 62.75 61.97 58.90 59.39 58.15 57.30 55.43 49.07 49.99 50.03 50.55 50.71 54.13 56.13 52.91 52.70 55.61 57.66 56.67 54.33 53.71 55.27 57.36 58.01
55.23 54.68 54.44 54.26 55.54 55.64 55.12 55.48 57.04 56.60 57.24 56.00 53.75 52.45 53.51 56.58 58.53 57.05 58.48 59.88 62.15 54.02 54.69 54.51 54.84 52.43 53.87 55.41 54.72 53.42 52.07 50.52 51.53 54.51 53.24 52.23 52.05 53.33 56.37 56.20 54.59 54.97 54.52 55.51 57.25
55.09 54.58 54.10 54.37 55.64 55.31 54.30 57.24 56.27 55.85 53.27 56.36 56.57 56.66 56.34 56.93 54.98 56.08 58.25 55.35 53.14 50.39 51.96 53.39 52.30 55.61 57.36 55.64 54.83 54.01 51.96 50.00 51.87 53.40 53.18 51.51 50.68 52.92 54.10 54.08 56.63 56.57 56.16 56.49 57.21
54.53 54.02 53.58 54.17 54.97 55.50 54.91 56.49 57.46 57.59 54.27 54.93 56.58 56.35 56.76 56.70 55.16 54.97 55.74 53.88 51.93 49.75 50.36 50.23 53.45 56.94 55.59 54.21 53.16 52.95 51.73 49.96 51.03 52.51 53.45 51.33 48.82 50.26 53.59 54.68 55.32 56.79 58.04 58.08 57.65
53.92 53.51 53.36 53.28 55.10 54.22 55.40 57.74 55.14 56.62 51.59 51.59 53.74 56.18 56.46 56.78 54.00 57.12 55.69 54.68 51.46 49.20 52.88 53.54 55.58 55.21 54.30 52.80 53.39 50.17 53.55 53.39 51.27 50.26 46.35 50.36 44.85 48.38 51.33 52.73 53.68 55.21 56.30 57.38 58.37
53.74 53.51 53.21 52.76 54.26 54.82 56.31 54.89 53.88 57.29 42.28 53.85 53.47 57.92 54.37 53.76 53.61 54.05 57.12 54.09 51.56 53.20 53.81 52.01 53.11 53.12 51.86 52.22 54.08 50.44 54.69 53.32 51.72 49.13 47.97 45.58 44.39 46.76 50.84 49.61 52.67 54.79 56.24 57.54 58.11
53.55 53.45 52.22 54.41 55.40 56.79 55.30 55.35 57.96 51.05 43.63 52.61 53.79 51.29 51.91 54.13 55.41 57.38 56.74 58.82 58.14 55.91 55.83 53.64 57.46 54.44 53.67 54.43 54.64 54.70 52.16 50.64 49.75 47.97 42.85 44.36 44.36 44.81 48.91 49.92 52.53 54.56 56.00 57.24 58.28
53.25 52.36 51.21 55.29 55.87 54.67 55.56 57.85 50.17 46.80 53.28 53.06 53.81 53.54 53.29 53.51 54.95 55.17 54.30 54.11 52.85 50.45 50.67 51.96 51.69 54.19 54.37 52.00 53.12 53.02 50.21 44.57 42.23 42.06 41.47 45.65 43.28 45.14 49.45 51.70 53.40 53.94 55.82 57.30 58.52
52.39 50.55 51.70 55.63 56.45 55.35 60.00 56.42 46.24 49.75 51.91 56.61 55.24 53.49 52.66 54.48 54.05 54.05 52.77 50.81 53.27 52.63 50.84 48.77 46.11 50.89 53.14 50.67 50.26 50.88 47.85 43.71 36.89 38.21 42.05 44.77 40.75 44.92 50.76 53.07 54.68 55.31 55.85 56.69 57.61
50.72 53.80 56.84 57.54 55.21 54.24 59.62 50.23 50.22 52.08 55.36 54.64 53.54 51.39 50.90 54.28 54.25 53.02 51.12 51.03 51.26 52.76 50.40 48.75 46.85 53.02 52.57 52.65 51.64 49.10 47.86 48.32 43.71 43.00 42.09 43.77 45.25 48.67 50.46 51.59 53.34 54.05 54.49 53.81 55.18
55.25 57.69 56.64 57.79 57.46 60.31 56.45 47.59 52.69 55.67 57.05 55.56 50.31 52.13 49.85 52.02 52.65 51.76 50.11 51.91 50.43 52.98 54.57 50.39 46.13 49.74 51.99 52.16 52.08 51.13 50.25 44.76 46.20 37.77 36.06 39.91 40.71 43.00 45.48 46.04 48.39 48.86 49.55 51.22 53.76
58.30 54.49 59.81 56.76 59.48 57.86 51.94 50.99 52.86 57.31 57.16 54.14 51.88 51.54 52.16 52.24 51.86 50.17 49.26 52.24 53.16 51.90 54.33 52.05 49.82 46.82 49.88 47.95 46.28 48.58 48.10 46.43 46.28 44.10 39.70 37.95 40.19 45.75 43.85 46.21 47.84 49.47 51.07 51.99 52.81
57.87 52.54 61.55 58.71 55.27 52.53 51.98 53.33 51.78 56.35 55.46 55.25 55.34 54.16 53.18 51.75 49.99 50.02 50.22 52.50 56.10 53.15 50.93 51.28 48.95 44.47 44.75 49.86 49.67 48.51 46.79 46.31 43.51 40.39 42.47 41.99 39.85 47.46 48.14 49.10 49.85 50.32 51.70 53.12 53.55
56.70 57.61 61.57 58.85 51.16 52.49 54.54 54.95 55.75 54.03 53.61 54.27 53.64 55.46 54.33 51.49 49.62 50.97 51.44 55.20 55.95 54.95 52.36 52.73 47.33 42.16 42.98 47.40 48.36 45.92 45.87 46.51 46.46 46.10 40.42 38.85 39.09 48.80 49.64 49.97 51.26 50.67 51.85 52.51 53.09
57.37 53.39 56.18 57.49 54.70 54.48 54.00 53.30 53.13 55.08 53.66 54.28 53.64 55.42 53.47 52.09 52.86 50.54 52.56 54.22 55.37 53.26 53.42 54.95 48.08 45.99 43.53 43.74 46.13 43.19 44.07 44.07 44.47 42.28 40.93 41.09 41.60 45.58 48.13 49.00 49.75 50.21 51.23 50.97 49.87
59.23 56.52 53.94 52.23 53.48 54.70 54.77 53.80 52.05 52.08 54.22 54.81 53.77 52.84 53.03 50.62 51.38 51.23 53.38 53.49 54.33 54.49 52.07 52.81 44.67 45.20 45.66 45.65 45.89 44.49 44.01 44.65 42.96 41.84 39.98 41.89 42.10 45.83 48.49 48.93 49.65 50.35 49.39 47.36 47.45
60.44 58.82 56.87 55.56 55.00 54.91 51.22 53.55 52.53 52.26 53.19 52.40 52.46 52.21 53.77 52.40 53.17 51.78 54.08 53.81 52.33 53.39 51.20 50.98 44.15 46.17 43.51 45.43 45.50 43.44 45.00 45.73 45.33 44.59 44.32 44.27 43.58 47.86 49.02 51.19 47.80 46.55 46.37 46.60 47.12
61.88 62.04 58.97 52.43 55.40 54.34 54.34 54.40 53.51 54.85 54.92 55.29 55.02 54.37 53.57 53.61 56.27 56.23 56.59 56.12 55.25 53.02 51.40 49.57 46.92 45.22 40.77 44.90 44.56 41.13 44.17 45.20 45.65 46.87 46.03 41.80 43.70 46.94 46.93 45.97 45.08 46.21 46.96 47.26 48.31
MSLP
1016.49 1016.05 1015.75 1015.60 1015.46 1015.20 1014.93 1014.73 1014.70 1014.63 1014.52 1014.28 1013.98 1013.84 1013.91 1013.94 1013.61 1013.38 1011.57 1009.85 1010.12 1011.18 1011.65 1012.12 1012.20 1012.15 1012.32 1012.42 1012.80 1013.22 1013.44 1014.45 1015.36 1016.09 1016.82 1017.72 1018.11 1018.85 1019.10 1019.20 1019.86 1020.53 1020.48 1021.03 1022.01
1016.38 1016.05 1015.63 1015.43 1015.20 1014.95 1014.76 1014.58 1014.63 1014.51 1014.34 1013.93 1013.71 1013.72 1013.82 1013.85 1013.24 1011.65 1009.64 1009.75 1010.51 1011.32 1011.39 1011.38 1011.70 1011.86 1011.97 1012.29 1012.69 1012.92 1013.49 1014.83 1015.66 1016.07 1016.74 1017.78 1018.33 1019.01 1019.42 1019.79 1020.56 1020.91 1021.15 1021.62 1022.16
1016.39 1015.97 1015.57 1015.31 1015.06 1014.86 1014.69 1014.54 1014.44 1014.35 1014.07 1013.74 1013.65 1013.66 1013.71 1013.59 1012.35 1010.10 1009.57 1010.27 1010.88 1011.22 1010.94 1011.23 1011.42 1011.56 1011.73 1012.44 1012.94 1013.50 1014.23 1015.12 1015.89 1016.42 1016.95 1017.96 1018.80 1019.28 1019.54 1020.10 1020.55 1021.26 1021.65 1022.29 1022.62
1016.38 1016.06 1015.55 1015.17 1014.92 1014.85 1014.67 1014.46 1014.20 1014.07 1013.77 1013.71 1013.67 1013.50 1013.53 1013.15 1011.43 1009.65 1010.12 1010.63 1011.10 1011.14 1010.92 1011.05 1011.28 1011.33 1011.74 1012.44 1013.39 1014.13 1015.41 1015.62 1016.38 1017.05 1017.54 1018.46 1019.27 1019.89 1020.33 1020.66 1020.59 1021.44 1022.05 1022.58 1022.98
1016.31 1015.99 1015.67 1015.36 1015.01 1014.75 1014.52 1014.24 1013.84 1013.71 1013.65 1013.63 1013.55 1013.42 1013.35 1012.17 1010.33 1010.05 1010.57 1010.82 1011.02 1011.07 1010.83 1010.79 1010.88 1011.33 1011.99 1012.84 1013.57 1014.42 1015.72 1016.39 1016.91 1017.49 1018.28 1018.91 1019.70 1020.42 1021.38 1021.55 1021.39 1022.06 1022.79 1023.05 1023.60
1016.05 1015.84 1015.44 1015.09 1014.71 1014.47 1014.19 1013.79 1013.41 1013.32 1013.53 1013.47 1013.31 1013.34 1012.66 1011.04 1009.73 1010.08 1010.35 1010.55 1010.64 1010.68 1010.57 1010.62 1010.82 1011.59 1012.45 1013.54 1014.14 1015.26 1016.02 1016.98 1017.65 1018.12 1018.76 1019.17 1020.22 1020.65 1022.05 1022.14 1022.31 1022.76 1023.38 1023.86 1024.20
1015.92 1015.56 1015.27 1014.86 1014.45 1014.06 1013.77 1013.51 1013.21 1013.10 1013.35 1013.21 1013.06 1013.01 1011.80 1010.39 1009.72 1010.13 1010.04 1010.13 1010.50 1010.67 1010.65 1010.98 1011.18 1011.60 1012.85 1013.88 1015.05 1015.58 1016.44 1017.23 1018.14 1018.60 1019.18 1019.46 1020.20 1021.53 1022.28 1022.57 1022.87 1023.49 1024.07 1024.31 1024.94
1015.79 1015.37 1015.03 1014.67 1014.23 1013.87 1013.56 1013.25 1012.86 1012.79 1013.02 1012.91 1012.82 1012.40 1011.19 1010.21 1010.01 1010.13 1010.14 1010.25 1010.59 1010.75 1010.96 1011.31 1011.26 1012.13 1013.18 1014.35 1014.96 1015.33 1016.16 1016.89 1018.33 1018.71 1019.49 1019.63 1020.84 1022.05 1022.30 1022.59 1023.13 1023.68 1024.15 1024.52 1025.05
1015.59 1015.25 1014.84 1014.52 1014.12 1013.82 1013.39 1012.89 1012.33 1012.42 1012.72 1012.65 1012.63 1011.66 1011.03 1010.81 1010.20 1009.90 1010.03 1010.16 1010.55 1011.00 1011.22 1011.45 1011.62 1012.64 1013.61 1013.60 1014.54 1015.39 1015.79 1017.04 1018.31 1018.98 1019.39 1019.73 1020.99 1021.87 1022.24 1022.59 1023.02 1023.36 1023.67 1024.30 1024.45
1015.40 1015.02 1014.64 1014.21 1013.94 1013.53 1013.01 1012.72 1012.47 1012.45 1012.52 1012.31 1011.69 1011.32 1010.96 1009.97 1009.66 1009.84 1010.24 1010.37 1010.56 1010.95 1011.24 1011.31 1011.88 1012.32 1012.99 1013.17 1013.38 1014.45 1015.51 1016.96 1018.00 1019.36 1019.40 1020.16 1020.99 1021.76 1022.17 1022.52 1022.97 1023.17 1023.63 1023.76 1023.95
1015.26 1014.84 1014.38 1014.04 1013.73 1013.49 1012.84 1012.60 1012.73 1012.19 1011.54 1010.97 1010.51 1009.97 1009.50 1009.21 1009.23 1009.52 1009.90 1010.22 1010.59 1010.94 1010.81 1011.35 1011.41 1011.47 1012.18 1012.88 1013.52 1014.28 1015.36 1016.80 1018.55 1019.50 1019.62 1020.51 1021.30 1021.89 1022.07 1022.47 1022.65 1022.83 1023.09 1023.42 1023.39
1015.07 1014.65 1014.25 1013.82 1013.40 1013.15 1013.14 1011.86 1011.54 1011.31 1010.79 1009.98 1009.87 1009.43 1009.08 1008.78 1008.96 1009.29 1009.46 1009.71 1010.40 1010.44 1010.95 1011.18 1010.98 1011.30 1012.08 1012.74 1013.39 1014.19 1015.27 1017.03 1018.72 1019.52 1019.81 1020.64 1021.27 1021.80 1022.07 1022.15 1022.11 1022.23 1022.30 1022.71 1022.90
1014.92 1014.45 1014.10 1013.58 1013.07 1012.75 1012.08 1011.27 1010.83 1010.83 1010.69 1009.68 1009.09 1008.74 1008.56 1008.65 1008.63 1008.75 1008.97 1009.30 1009.63 1010.27 1010.64 1010.72 1011.11 1011.40 1011.87 1012.72 1013.32 1014.31 1014.83 1016.45 1017.48 1019.23 1019.97 1020.39 1020.90 1021.35 1021.76 1022.03 1021.95 1021.96 1022.04 1022.20 1022.18
1014.76 1014.35 1014.00 1013.34 1013.24 1012.19 1011.41 1010.93 1010.98 1010.94 1010.35 1009.49 1008.68 1008.00 1008.27 1008.30 1008.63 1008.64 1008.69 1008.87 1009.71 1010.23 1010.72 1011.13 1011.46 1011.64 1012.10 1012.66 1013.37 1014.04 1014.84 1015.83 1017.15 1018.14 1019.36 1020.49 1020.30 1020.94 1021.18 1021.40 1021.62 1021.59 1021.73 1021.80 1021.90
1014.62 1014.26 1013.99 1013.67 1013.06 1011.88 1011.26 1011.05 1010.96 1010.89 1009.93 1009.23 1008.27 1007.89 1008.28 1008.43 1008.57 1008.81 1008.96 1008.85 1009.59 1010.50 1011.22 1011.76 1011.85 1012.20 1012.72 1013.60 1013.89 1015.13 1015.53 1016.18 1017.23 1018.01 1018.94 1020.18 1020.47 1020.53 1021.21 1020.93 1020.96 1021.17 1021.31 1021.29 1021.46
1014.43 1014.12 1014.00 1013.31 1013.02 1011.30 1010.95 1010.87 1010.89 1010.58 1009.63 1008.89 1008.10 1007.94 1008.35 1008.63 1008.96 1009.11 1009.19 1009.42 1010.32 1010.82 1011.44 1012.21 1012.71 1013.14 1013.87 1014.66 1014.50 1015.50 1016.02 1016.83 1017.46 1017.96 1018.56 1019.87 1020.32 1020.55 1020.71 1020.88 1020.70 1020.71 1020.75 1020.88 1021.01
1014.13 1013.98 1013.93 1013.00 1011.68 1011.12 1010.89 1010.70 1010.73 1009.97 1009.62 1008.97 1008.45 1008.41 1008.61 1009.14 1009.42 1009.64 1010.06 1010.55 1010.90 1011.40 1011.87 1012.64 1013.32 1013.88 1014.47 1015.06 1015.43 1015.49 1015.84 1016.18 1016.78 1017.42 1018.40 1019.87 1020.16 1020.53 1020.71 1020.79 1020.83 1020.80 1020.72 1020.70 1020.77
1013.66 1013.55 1013.24 1011.93 1011.31 1011.34 1010.70 1010.50 1010.52 1009.91 1009.38 1009.01 1008.85 1009.01 1009.27 1009.75 1010.34 1010.67 1011.03 1011.44 1011.74 1011.82 1012.22 1012.76 1013.80 1014.36 1014.90 1015.20 1015.24 1015.55 1015.86 1015.86 1016.24 1017.19 1018.44 1019.88 1020.10 1020.70 1020.96 1020.95 1021.12 1021.21 1021.09 1020.85 1020.87
1013.12 1012.85 1012.32 1011.36 1011.28 1011.30 1010.84 1010.82 1010.30 1009.88 1009.47 1009.12 1009.26 1009.52 1009.97 1010.22 1010.55 1011.30 1012.07 1012.28 1012.79 1012.70 1012.74 1013.44 1014.52 1015.19 1015.43 1015.52 1015.80 1015.79 1016.23 1017.11 1017.35 1018.61 1018.67 1020.00 1020.69 1020.92 1021.16 1021.37 1021.53 1021.47 1021.47 1021.48 1021.36
1012.97 1012.35 1011.65 1011.16 1011.14 1010.99 1010.87 1011.06 1010.53 1009.98 1009.53 1009.34 1009.43 1009.92 1010.41 1010.86 1011.11 1011.77 1012.47 1013.07 1013.23 1013.65 1013.35 1014.25 1015.05 1015.76 1015.75 1015.86 1016.16 1016.20 1017.29 1017.47 1017.59 1018.06 1018.69 1020.12 1020.93 1021.32 1022.01 1022.35 1022.46 1022.42 1022.40 1022.18 1021.84
1012.97 1012.22 1011.38 1011.16 1011.10 1010.98 1011.21 1011.17 1010.68 1009.90 1009.69 1009.52 1009.83 1010.35 1011.06 1011.41 1011.89 1012.44 1013.05 1013.56 1013.72 1014.14 1014.09 1014.76 1015.53 1016.31 1016.09 1016.66 1017.05 1017.13 1017.28 1018.19 1018.61 1019.20 1019.22 1020.16 1021.67 1023.30 1023.51 1023.49 1023.23 1023.16 1023.03 1022.75 1022.55
1013.10 1012.20 1011.32 1010.92 1011.31 1012.13 1011.65 1011.35 1010.90 1010.33 1009.94 1009.87 1010.32 1010.89 1011.62 1012.14 1012.57 1012.98 1013.53 1014.01 1014.26 1014.49 1014.93 1015.94 1016.47 1016.76 1017.21 1017.69 1018.03 1018.14 1018.49 1018.81 1018.55 1019.66 1020.42 1021.05 1022.89 1024.07 1024.24 1024.13 1023.88 1023.49 1023.31 1023.10 1022.75
1013.35 1012.49 1011.44 1011.05 1011.56 1011.82 1011.64 1011.23 1010.93 1010.37 1010.75 1010.45 1011.20 1011.55 1012.19 1012.73 1013.22 1013.49 1013.96 1014.63 1014.64 1015.06 1015.91 1016.40 1017.26 1017.66 1017.88 1018.17 1018.35 1018.64 1019.40 1019.77 1019.86 1020.18 1020.82 1021.45 1023.00 1024.18 1024.36 1024.10 1023.86 1023.60 1023.27 1023.20 1022.96
1013.66 1012.92 1012.20 1011.91 1012.19 1011.98 1011.68 1011.39 1011.04 1011.00 1011.41 1011.40 1012.08 1012.22 1012.75 1013.21 1013.49 1013.83 1014.33 1014.99 1015.21 1015.97 1016.83 1016.95 1018.05 1018.02 1018.01 1018.36 1018.96 1019.48 1020.09 1020.35 1020.35 1020.48 1021.37 1022.13 1023.02 1023.90 1024.08 1023.99 1024.03 1024.02 1023.82 1023.79 1023.57
1013.79 1013.49 1013.14 1012.66 1012.43 1012.27 1012.07 1011.86 1011.55 1011.51 1011.66 1011.84 1012.39 1012.63 1012.89 1013.41 1013.77 1014.07 1014.55 1015.13 1015.76 1016.45 1017.04 1017.54 1018.70 1019.16 1019.47 1019.65 1019.87 1020.43 1020.70 1020.75 1020.99 1021.85 1022.08 1022.77 1023.40 1023.97 1024.07 1024.24 1024.31 1024.39 1024.15 1023.93 1023.80
1013.88 1013.30 1013.34 1013.08 1012.68 1012.32 1012.39 1012.04 1011.83 1012.22 1012.33 1012.34 1012.59 1013.18 1013.04 1013.56 1013.65 1014.00 1014.46 1015.11 1015.68 1016.61 1017.33 1018.32 1019.40 1019.67 1020.29 1020.70 1020.83 1021.19 1021.54 1021.70 1022.07 1022.57 1022.97 1023.40 1023.81 1024.21 1024.33 1024.38 1024.42 1024.40 1024.26 1024.03 1023.85
1014.14 1013.62 1013.13 1013.24 1012.81 1012.45 1012.33 1012.10 1012.15 1012.33 1012.94 1012.89 1013.08 1013.25 1013.78 1014.17 1014.21 1014.47 1014.92 1015.46 1015.83 1016.51 1017.61 1018.35 1019.21 1019.82 1020.54 1021.18 1021.38 1021.64 1021.77 1021.98 1022.52 1022.89 1023.16 1023.55 1024.16 1024.27 1024.20 1024.43 1024.40 1024.34 1024.18 1024.00 1023.83
Wind_Speed
11 12 11 9 8 8 8 8 9 8 8 8 7 7 8 7 5 3 4 4 3 16 8 10 3 7 3 3 2 2 4 4 4 5 5 9 3 2 3 7 5 3 2 14 16
12 11 12 10 10 9 9 9 10 8 8 8 8 8 7 6 3 4 3 4 11 13 8 11 8 9 4 3 2 2 2 4 1 3 6 8 3 6 3 7 5 6 14 17 16
12 14 12 12 12 11 11 11 10 8 8 8 8 8 7 3 3 3 6 9 14 6 5 3 9 3 3 2 3 4 4 6 4 9 12 7 6 2 7 4 4 9 15 14 12
13 13 14 13 13 12 11 12 10 10 9 8 8 9 7 3 6 2 10 11 12 4 6 9 8 4 3 4 3 6 7 4 8 8 7 5 6 5 5 4 7 13 14 12 11
13 13 13 12 12 12 11 11 10 10 9 8 8 7 4 2 3 6 15 13 9 5 7 4 4 3 5 4 5 9 7 8 11 13 11 10 9 5 5 3 9 13 10 11 9
14 13 14 14 13 11 11 10 10 9 8 8 8 6 3 3 3 8 11 8 6 4 7 2 2 7 8 4 5 5 11 12 8 9 7 8 6 1 5 6 10 9 8 9 11
14 14 14 14 14 13 13 12 12 11 8 9 6 4 2 2 3 7 5 3 3 2 3 3 8 4 4 7 8 8 9 8 8 4 5 4 8 7 7 8 10 9 9 10 8
14 14 14 15 16 14 14 14 14 12 8 7 5 3 2 5 3 6 3 4 5 2 6 6 10 10 4 10 4 2 3 3 5 3 2 6 4 6 6 9 8 9 8 7 8
15 14 15 15 15 15 15 16 12 4 5 5 3 2 4 1 3 4 1 3 6 5 6 5 5 5 5 5 3 3 0 2 3 5 4 4 5 7 6 7 8 8 10 9 11
14 15 14 15 15 14 16 5 6 6 2 3 2 3 4 4 5 5 2 6 6 11 5 2 4 3 3 4 4 3 4 4 3 4 8 8 7 6 7 7 8 7 6 9 10
16 15 15 15 14 11 6 1 1 2 1 1 1 2 0 2 6 4 5 6 6 1 3 1 4 4 5 5 3 6 6 7 5 4 8 8 7 3 3 4 8 7 6 8 9
16 16 16 15 14 10 3 2 5 3 4 1 3 4 4 1 4 5 10 6 4 3 3 3 3 2 8 10 10 10 15 7 6 4 4 6 5 4 3 2 3 9 11 9 5
15 16 16 16 14 4 1 4 6 3 1 2 4 4 3 6 4 6 10 5 2 4 2 2 2 4 3 6 7 5 3 10 7 10 6 6 3 1 4 3 3 5 8 9 9
16 16 15 18 3 3 1 4 4 3 2 1 3 1 4 3 2 1 2 3 2 1 3 1 2 2 4 2 1 5 4 13 16 10 3 2 1 2 3 5 5 6 7 10 10
16 15 14 8 3 2 3 6 7 2 3 0 2 2 2 4 5 3 3 1 6 4 3 3 3 4 3 6 2 4 6 12 12 6 7 3 4 3 3 1 4 3 7 9 9
15 14 13 2 2 4 5 1 1 0 2 2 1 3 4 3 3 1 3 7 3 5 9 4 2 5 3 8 7 14 14 10 5 3 4 3 3 3 1 3 5 4 4 7 9
16 13 6 2 1 6 4 2 2 1 2 2 2 2 4 2 5 4 4 4 1 4 4 3 4 3 5 7 2 5 7 2 5 5 1 2 2 3 4 3 4 9 9 6 6
18 8 6 4 5 7 2 4 1 1 2 1 2 5 4 2 5 5 3 4 7 2 3 4 5 6 6 2 2 7 3 4 7 6 3 3 3 4 6 4 3 5 6 5 5
14 2 2 2 2 3 3 2 4 3 1 1 3 3 3 4 4 4 5 4 5 6 1 3 2 2 7 5 2 3 3 3 5 1 3 2 3 1 4 8 9 12 14 15 14
2 2 2 6 2 1 4 3 2 3 3 1 2 1 3 2 3 3 2 3 2 6 4 3 3 4 3 2 10 5 5 3 1 3 2 3 2 2 12 12 12 15 15 15 14
1 2 3 3 0 4 2 2 3 3 3 2 3 5 4 3 4 2 2 3 4 3 6 4 1 2 0 7 6 1 1 5 3 3 3 1 3 8 6 7 9 10 11 13 14
2 2 3 2 2 1 1 3 2 3 3 5 5 6 4 3 3 3 3 3 5 1 4 3 4 4 4 4 3 3 4 3 4 4 2 3 3 5 5 6 7 10 11 11 11
2 1 2 1 2 1 1 0 2 4 6 5 4 4 2 3 4 4 3 4 5 4 2 4 3 5 4 4 3 5 5 3 4 1 2 3 3 4 3 6 9 11 12 12 14
1 2 2 4 2 1 0 2 4 4 4 6 4 4 2 2 4 5 4 4 5 6 7 5 4 3 2 4 3 3 4 2 1 1 4 0 5 1 6 9 10 10 12 12 10
2 2 1 2 1 1 2 1 3 3 3 5 4 3 3 3 3 4 4 4 6 3 4 4 5 5 9 6 5 5 5 6 6 3 3 3 2 5 8 8 8 8 8 10 11
1 2 2 2 1 1 1 1 3 3 4 3 6 1 3 4 2 6 6 3 2 4 3 3 5 4 5 5 5 8 6 9 8 6 5 2 1 5 5 1 5 7 7 9 11
1 0 1 1 2 1 0 0 3 6 8 5 11 9 11 3 5 8 7 7 5 4 4 3 7 4 5 6 3 3 2 3 5 3 2 3 0 6 4 4 6 7 8 9 11
Wind_Direction
336 329 323 322 317 311 317 323 315 307 305 303 333 342 317 317 316 204 209 209 173 131 128 132 121 114 140 99 71 129 108 124 153 170 136 154 131 71 78 111 75 37 96 123 134
338 329 324 324 321 319 321 325 308 308 302 319 336 326 307 327 237 218 256 158 125 148 124 161 146 148 103 97 72 51 98 100 147 119 150 151 132 131 139 136 83 107 122 133 142
339 330 326 327 324 325 324 315 305 311 311 330 327 309 305 291 204 197 150 127 136 171 152 133 140 151 98 80 42 53 70 133 100 105 133 130 122 131 143 170 147 153 142 140 142
341 333 327 329 325 322 316 306 309 318 322 325 312 308 310 221 156 145 106 111 130 171 138 135 150 162 98 98 71 102 53 95 121 114 113 102 103 97 49 351 169 156 154 140 147
338 331 326 323 319 315 308 303 311 314 314 309 299 306 270 180 238 56 102 122 140 164 169 143 159 145 85 100 116 100 122 80 103 97 91 106 85 77 50 64 134 133 147 156 129
337 334 327 327 320 312 304 303 303 298 292 288 291 305 223 149 59 119 124 132 143 165 158 167 127 106 96 58 32 95 110 111 84 90 107 112 102 110 76 118 117 135 110 83 92
337 333 327 324 320 317 311 307 298 290 287 272 267 239 239 74 45 134 146 142 130 71 118 54 114 82 128 105 128 115 93 96 43 68 109 102 70 66 111 105 105 100 90 102 105
338 331 328 324 320 320 317 308 292 290 278 258 229 214 72 344 126 145 162 124 87 54 74 99 91 93 42 121 102 101 110 156 22 11 104 322 65 126 149 136 129 126 128 128 159
337 332 328 323 322 322 313 308 303 279 226 178 191 259 97 283 170 174 216 85 96 92 103 102 61 74 154 144 129 50 88 134 118 28 117 24 124 172 169 164 167 187 180 176 205
336 333 328 323 322 322 319 287 75 136 171 206 229 150 157 173 158 157 144 143 98 115 116 85 91 114 142 196 313 184 186 111 99 56 96 90 111 147 179 179 195 220 194 213 213
337 333 326 324 319 323 329 254 265 103 196 254 112 136 10 106 134 201 156 121 119 161 136 131 220 261 41 207 144 129 138 117 106 123 69 87 108 49 222 201 220 221 195 224 223
337 331 328 323 315 317 237 100 106 104 314 203 243 278 247 265 132 139 151 151 182 151 154 157 262 99 104 152 144 138 137 122 106 142 110 143 99 120 82 46 294 228 227 228 234
336 333 331 322 317 281 322 104 119 71 194 287 208 194 186 174 177 184 176 176 129 157 169 235 49 117 70 140 147 179 190 172 147 136 102 144 135 200 205 270 293 247 250 254 266
336 334 334 325 290 335 217 114 326 187 110 203 211 201 139 151 137 317 187 123 82 97 121 34 3 69 43 346 224 232 282 154 143 171 152 247 283 253 306 303 277 259 242 250 255
335 335 333 336 309 229 72 339 124 194 120 233 148 104 140 187 141 53 10 89 153 122 208 67 44 54 56 349 313 58 112 131 140 107 147 130 251 94 297 319 4 279 249 243 243
334 332 331 142 227 279 338 126 217 357 96 98 130 146 139 28 63 123 72 50 98 84 69 83 60 48 63 26 106 124 114 99 109 138 219 92 289 94 25 343 335 349 318 266 248
331 324 296 303 260 335 312 152 19 102 307 34 76 83 103 51 61 31 52 50 179 156 168 124 45 83 72 110 188 152 168 172 217 211 359 114 193 58 327 309 299 331 331 326 277
328 319 198 244 301 339 279 60 198 253 259 32 75 103 89 41 50 28 88 94 45 25 119 189 178 21 12 15 311 157 289 292 287 284 96 160 155 86 343 287 309 306 308 325 331
317 182 239 289 282 143 77 113 218 206 305 346 110 97 77 55 103 84 44 44 31 359 110 139 121 317 38 50 311 149 242 40 110 105 217 121 151 177 45 53 12 12 8 0 353
10 348 352 330 91 27 75 229 255 227 319 87 109 44 116 41 96 87 51 24 74 20 294 91 130 18 357 184 62 33 113 222 152 228 238 148 184 42 348 359 21 27 20 14 21
51 75 359 12 47 49 139 235 281 301 207 77 114 100 85 99 70 77 72 57 19 67 70 99 10 50 252 25 354 4 106 67 89 346 296 216 120 1 357 35 44 43 37 28 23
66 86 9 311 49 45 143 216 338 345 357 74 80 73 67 59 83 94 106 32 351 5 54 54 91 75 71 35 54 67 44 342 291 149 57 331 111 31 56 48 30 23 7 3 12
60 348 55 298 133 291 289 118 13 44 2 55 69 46 49 115 107 108 100 32 21 61 104 171 74 135 159 164 131 48 26 63 89 103 136 275 122 69 60 16 9 3 10 9 12
118 103 355 58 34 90 15 22 103 53 64 60 94 84 83 85 25 138 113 58 44 73 59 85 77 316 335 70 93 102 24 357 291 243 136 348 152 42 355 357 13 6 15 7 358
20 93 350 157 54 65 17 24 132 99 73 35 74 66 149 115 103 103 111 122 68 65 59 68 82 77 60 76 92 103 74 62 78 84 305 115 133 357 350 352 11 360 356 360 6
76 159 91 85 305 102 55 148 141 111 349 54 108 42 111 124 137 160 141 156 143 82 77 41 115 110 67 91 110 103 95 91 89 95 112 161 138 4 354 299 357 353 352 349 350
44 104 267 359 111 138 3 347 161 146 53 69 127 95 79 97 110 79 79 79 109 117 104 102 145 160 165 164 113 178 124 141 134 176 191 264 272 336 357 350 338 336 333 334 336